Probability
0 0 0 0 0 0 0 0 0 0 0 0 0 0 0 0 0 0 0 0 0 0 0 0 0 1 2 3 3 3 2 2 1 1 0 0 0 1 2 3 3 1 0
0 0 0 0 0 0 0 0 0 0 0 0 0 0 0 0 0 0 0 0 0 0 0 0 0 0 1 1 1 1 1 1 1 1 1 1 1 1 2 3 3 2 1
0 0 0 0 0 0 0 0 0 0 0 0 0 0 0 0 0 0 0 0 0 0 0 0 0 0 0 0 0 0 0 1 1 0 1 2 2 2 2 3 3 2 1
0 0 0 0 0 0 0 0 0 0 0 0 0 0 0 0 0 0 0 0 0 0 0 0 0 0 0 0 0 0 0 0 0 0 1 2 3 3 4 4 4 2 1
0 0 0 0 0 0 0 0 0 0 0 0 0 0 0 0 0 0 0 0 0 0 0 0 0 0 0 0 0 0 0 0 0 0 0 1 2 3 3 4 4 2 1
0 0 0 0 0 0 0 0 0 0 0 0 0 0 0 0 0 0 0 0 0 0 0 0 0 0 0 0 0 0 0 0 0 0 0 0 1 1 1 2 2 2 2
0 0 0 0 0 0 0 0 0 0 0 0 0 0 0 0 0 0 0 0 0 0 0 0 0 0 0 0 0 1 1 0 0 0 0 0 0 0 0 0 1 1 2
0 0 0 0 0 0 0 0 0 0 0 0 0 0 0 0 0 1 2 1 0 0 0 0 0 0 0 0 0 1 1 1 0 0 0 0 0 1 1 1 1 1 1
0 0 0 0 0 0 0 0 0 0 0 0 0 0 0 0 1 2 3 2 1 0 0 0 0 0 0 0 0 1 1 1 0 0 1 1 0 1 1 1 1 1 0
0 0 0 0 0 0 0 0 0 0 0 0 0 0 0 0 1 2 2 2 1 0 0 0 0 0 0 0 0 0 0 0 0 0 1 1 0 0 1 1 1 0 0
0 0 0 0 0 0 0 0 0 0 0 0 0 0 0 0 0 1 1 1 1 0 0 0 1 1 1 0 0 0 0 0 0 0 1 1 0 0 0 0 0 0 0
1 0 0 0 0 0 0 0 0 1 1 0 0 0 0 0 0 0 0 0 0 0 0 1 1 1 1 0 0 0 0 0 0 0 0 0 0 0 0 0 0 0 0
1 0 0 0 0 0 0 0 0 1 1 0 0 0 0 0 0 0 0 0 0 0 0 0 0 0 1 1 0 0 0 0 0 0 0 0 0 0 0 0 0 0 0
1 0 0 0 0 0 0 0 0 0 0 0 1 1 1 0 0 0 0 0 0 0 0 0 0 0 0 0 0 0 0 0 0 0 0 0 0 0 0 0 0 0 0
1 0 0 0 0 0 0 0 0 0 1 1 2 2 2 1 1 1 1 1 1 0 0 0 0 0 0 0 0 0 0 0 0 0 0 0 0 0 0 0 0 0 0
2 1 0 0 0 0 0 0 0 1 2 3 3 3 3 3 2 2 2 2 2 1 0 0 0 0 0 0 0 0 0 0 0 0 0 0 0 0 0 0 0 0 0
2 1 0 0 0 0 0 0 1 2 3 3 3 3 3 3 3 3 3 3 3 2 1 0 0 0 0 0 0 1 0 0 0 0 0 0 0 0 0 0 0 0 0
2 1 0 0 0 0 0 0 2 3 3 3 3 3 3 3 3 3 3 3 3 2 1 0 0 0 0 0 0 0 0 0 0 0 0 0 0 0 0 0 0 0 0
2 1 0 0 0 0 0 0 1 2 3 3 3 3 3 3 3 3 3 3 2 1 1 0 0 0 0 0 0 0 0 0 0 0 0 0 0 0 0 0 0 0 0
2 1 0 0 1 1 1 0 0 1 1 3 3 3 3 3 3 3 3 3 2 1 0 0 0 0 0 0 0 0 0 0 0 0 0 0 0 0 0 0 0 0 0
3 2 1 1 2 3 2 1 1 0 1 2 3 3 3 3 3 3 3 2 2 1 0 0 0 0 0 0 0 0 0 0 0 0 0 0 0 0 0 0 0 0 0
5 4 4 4 4 4 3 3 2 2 2 2 2 3 3 4 3 3 2 1 1 0 0 0 0 0 0 0 0 0 0 0 0 0 0 0 0 0 0 0 0 0 0
6 6 6 6 5 3 3 3 3 4 4 3 3 3 4 4 4 4 3 1 0 0 0 0 0 0 0 0 0 0 0 0 0 0 0 0 0 0 0 0 0 0 0
6 6 7 7 6 4 3 2 2 3 3 3 5 5 4 4 5 5 4 2 0 0 0 0 0 0 0 0 0 0 0 0 0 0 0 0 0 0 0 0 0 0 0
6 6 6 6 6 5 2 1 2 2 3 3 5 7 5 4 4 4 5 5 2 1 1 0 0 0 0 0 0 0 0 0 0 0 0 0 0 0 0 0 0 0 0
6 6 6 6 6 5 2 1 2 3 3 3 5 7 6 4 3 3 6 7 5 3 2 1 0 0 0 0 0 0 0 0 0 0 0 0 0 0 0 0 0 0 0
Wind_Speed
3 3 2 2 3 2 2 2 3 4 4 4 4 5 5 5 5 5 5 9 9 8 8 8 7 7 7 7 6 6 6 5 5 6 6 5 5 5 5 6 6 6 6
2 2 3 3 3 2 2 2 3 3 3 3 4 4 4 5 4 4 4 5 8 8 8 8 7 7 7 6 6 6 6 5 5 6 6 6 5 5 5 5 5 5 5
3 3 2 3 2 2 2 2 3 2 2 2 3 4 4 4 3 4 4 3 4 7 8 8 7 7 6 6 6 5 5 5 5 5 5 5 5 5 5 5 5 5 5
2 2 2 2 2 2 2 2 2 2 2 2 2 2 3 2 3 3 3 3 3 3 6 8 8 8 7 7 6 5 5 4 4 4 5 4 4 4 4 4 4 4 5
2 2 2 2 2 2 2 1 2 2 2 2 2 1 2 2 2 2 3 4 4 3 3 5 6 7 7 7 6 5 5 4 4 4 5 4 4 4 4 4 4 5 5
1 1 1 1 1 1 1 1 2 1 1 1 1 1 1 1 1 2 2 3 3 4 3 3 2 4 6 7 6 6 5 4 4 4 5 4 4 4 4 4 5 5 5
1 1 0 0 0 0 1 1 1 1 1 1 0 1 2 1 1 1 1 2 3 3 3 3 3 2 2 5 6 6 5 5 4 4 5 4 4 4 4 5 5 5 5
1 1 1 1 1 0 0 0 0 1 0 1 2 1 1 3 1 1 1 1 2 2 2 3 3 3 3 2 6 7 7 6 5 4 3 4 5 5 5 5 5 5 5
2 2 2 1 1 1 1 1 1 1 1 1 1 2 2 0 1 2 1 1 1 1 1 2 2 2 3 2 2 5 6 6 5 4 4 4 5 5 5 5 5 5 5
2 2 2 2 2 2 2 2 1 2 2 1 1 1 3 2 2 1 2 1 1 1 2 1 2 2 2 2 3 6 6 5 5 5 4 4 4 4 4 5 5 5 5
2 2 2 3 2 2 2 2 2 2 2 2 1 1 1 1 3 2 1 1 1 0 1 1 1 1 2 2 2 5 6 5 5 5 4 3 3 3 4 4 4 5 5
2 2 3 3 3 2 3 2 2 3 2 2 2 2 2 2 2 2 2 1 1 0 0 1 1 1 1 1 3 6 5 4 4 4 4 4 3 3 3 3 4 4 4
2 3 3 4 3 3 4 3 3 3 3 3 3 2 2 2 2 2 3 2 2 1 1 1 0 0 1 1 2 3 3 4 4 4 4 4 3 3 3 3 3 4 3
3 3 4 4 4 4 4 3 3 3 3 4 3 3 2 2 2 3 3 3 3 2 2 1 1 0 0 1 2 1 2 3 3 3 3 3 3 2 3 3 3 3 3
3 3 4 4 4 5 4 4 3 4 3 3 3 3 3 2 2 2 2 3 3 3 2 1 1 0 1 1 1 1 0 3 2 2 2 3 2 2 2 2 2 2 2
3 4 4 4 4 5 5 5 4 4 4 3 3 4 3 2 2 2 2 3 3 4 2 1 1 1 1 1 0 2 0 3 2 1 2 2 2 2 2 2 1 1 1
4 4 4 4 4 5 5 5 5 4 5 4 4 4 4 4 3 2 2 3 3 3 3 2 1 1 1 2 1 1 1 2 2 2 2 1 1 1 2 1 1 1 1
4 4 5 5 5 5 5 5 5 5 5 5 5 5 5 3 4 3 3 3 3 3 3 3 2 1 2 2 1 1 1 1 1 3 2 1 1 1 2 1 1 1 1
5 5 5 5 5 5 5 6 6 6 6 6 5 5 5 5 5 4 4 4 3 3 3 3 2 1 1 1 1 1 1 1 1 1 2 2 1 1 1 0 0 0 1
4 5 5 5 6 6 6 6 6 6 6 6 6 5 5 5 5 5 4 5 4 4 4 4 3 2 2 2 2 2 2 1 1 1 1 1 2 2 2 1 1 1 1
4 4 5 6 6 5 5 6 6 6 6 6 6 6 6 5 4 4 3 4 5 4 4 4 3 3 3 2 3 2 2 2 2 2 1 2 2 2 3 3 3 2 2
4 4 5 5 6 5 4 6 7 7 7 7 6 6 6 7 6 6 5 5 5 5 5 5 4 4 4 3 3 3 3 3 2 1 2 2 2 2 2 1 2 2 2
4 4 4 5 6 5 5 7 8 7 7 6 6 6 5 5 7 6 7 8 7 7 6 6 5 5 5 4 4 4 3 3 3 2 2 3 2 2 2 1 3 2 2
4 4 4 5 5 5 5 6 7 8 7 7 7 7 6 6 6 7 7 7 7 6 7 7 6 5 4 4 4 4 4 4 3 2 3 3 3 3 2 2 3 3 3
4 5 5 5 6 6 5 6 6 6 6 8 7 7 7 7 6 7 8 7 7 6 5 5 4 3 2 2 3 3 4 4 4 3 3 3 3 3 3 2 2 4 3
4 5 5 5 6 6 4 5 6 5 6 5 5 5 6 6 6 8 8 7 7 6 5 5 6 5 5 5 6 6 5 4 4 3 3 3 3 3 3 2 2 2 3
Wind_Direction
58 55 58 55 48 50 53 44 42 53 52 50 51 49 52 53 51 51 69 58 50 49 53 53 50 51 53 54 58 67 69 72 72 73 74 75 78 77 77 79 77 76 75
56 48 54 52 50 42 43 43 52 54 52 49 50 52 51 54 53 53 55 74 62 49 48 47 48 51 48 51 55 58 63 70 75 75 74 73 74 77 79 79 77 75 77
57 56 48 52 49 49 50 47 55 57 64 63 61 53 51 44 48 51 52 43 65 67 54 46 46 48 47 49 53 55 59 70 73 73 72 74 78 79 81 80 83 80 76
59 56 52 53 48 42 42 54 49 50 56 47 52 54 52 53 51 47 52 54 43 51 67 51 42 42 48 47 48 55 61 68 71 71 72 73 78 80 81 85 84 83 82
61 67 52 47 51 48 41 37 50 35 51 45 46 63 49 47 52 49 50 51 53 44 51 72 56 48 47 44 46 55 60 62 67 68 68 72 79 85 82 83 85 81 80
87 80 80 60 53 53 46 43 60 52 42 35 39 63 67 64 64 51 34 45 42 44 38 44 67 76 59 50 51 52 55 56 62 68 68 70 76 81 79 82 89 82 80
168 129 197 71 44 61 49 64 71 99 71 2 249 160 131 109 77 72 38 36 54 45 39 38 31 30 81 80 56 47 48 55 62 69 70 70 72 77 80 83 93 88 82
213 209 228 217 193 190 190 173 183 271 94 318 296 262 201 165 147 71 57 43 42 55 35 31 34 32 27 54 70 55 44 47 54 64 73 69 74 79 82 85 87 89 85
236 226 224 231 230 228 213 220 222 231 227 216 322 306 291 294 129 149 102 57 34 39 40 25 22 27 39 45 61 67 49 41 45 59 72 77 77 78 81 83 81 82 84
236 237 229 230 230 235 232 222 217 235 233 232 211 299 320 343 283 190 167 138 57 35 21 15 15 27 31 42 55 52 50 39 44 54 67 72 75 78 82 80 78 78 78
228 230 234 233 238 236 238 225 215 229 227 242 241 227 242 261 273 277 244 195 181 74 17 353 2 26 24 36 41 57 48 38 41 47 52 59 70 78 82 87 81 77 73
214 221 228 231 234 232 231 225 220 225 236 234 238 236 243 251 256 259 263 260 272 278 216 3 339 22 17 26 49 54 44 33 34 37 39 46 64 80 83 90 86 81 75
221 219 220 227 229 227 222 218 219 225 230 234 236 241 252 265 273 269 268 269 269 258 228 222 307 355 14 14 57 46 59 39 34 34 33 39 54 73 76 88 88 83 82
242 229 224 227 227 228 224 215 228 229 233 232 237 238 249 257 264 266 270 268 257 226 222 233 196 221 311 295 42 322 87 77 51 37 34 40 60 76 76 77 85 84 80
243 239 229 227 223 222 223 215 224 226 231 235 238 236 239 240 252 260 265 267 269 262 250 201 215 231 254 272 53 264 228 92 72 44 39 48 62 78 84 86 87 84 75
242 238 233 233 226 219 216 216 224 233 229 225 235 243 245 242 238 243 248 255 266 272 270 279 266 284 300 265 346 273 335 109 107 82 65 60 67 71 87 103 104 106 113
245 244 242 240 235 228 222 215 225 228 233 229 223 229 232 239 230 224 229 234 238 246 248 257 276 257 255 262 215 260 238 219 145 122 100 87 88 99 93 103 142 137 149
244 244 248 249 245 236 231 224 223 227 231 233 229 226 226 217 228 228 222 225 223 230 238 241 242 238 257 265 255 256 250 239 214 113 123 122 118 126 113 103 116 158 207
249 244 242 247 249 241 230 226 226 230 232 233 231 227 227 219 218 218 221 226 224 220 227 233 243 245 255 237 228 242 236 243 244 134 156 178 166 147 137 143 157 184 233
255 252 248 246 249 247 237 229 228 233 234 234 233 232 231 226 224 224 220 224 222 218 216 224 228 224 233 228 226 226 224 212 227 214 193 190 176 187 198 201 196 193 222
259 263 257 252 250 245 239 236 232 235 234 233 234 232 230 231 243 242 236 227 219 218 215 219 224 227 223 211 223 225 231 230 226 215 219 214 199 209 196 195 204 204 206
262 260 260 256 253 248 238 241 245 237 237 236 236 236 228 219 217 223 230 239 237 231 225 217 222 226 233 228 225 221 223 227 227 201 236 232 217 221 207 204 127 155 213
266 262 265 263 257 254 240 239 240 244 240 240 238 237 233 225 217 220 215 218 224 235 246 244 236 237 238 228 220 220 221 233 245 220 239 240 225 235 221 159 132 187 237
265 263 264 264 261 255 244 245 244 242 240 237 236 236 233 227 218 222 221 219 222 223 229 235 243 246 246 239 229 237 238 241 246 217 223 242 235 244 233 210 165 206 237
273 268 261 258 258 256 244 245 248 246 243 242 237 233 232 231 214 218 223 222 223 218 208 229 258 274 283 244 227 225 222 219 228 221 215 238 237 244 237 225 189 195 219
272 272 267 263 262 263 252 247 251 248 245 243 237 231 222 231 217 210 222 223 226 222 211 209 215 216 222 208 206 215 221 224 232 233 206 229 236 241 240 222 218 209 220